Weather History for Little Rock AFB, AR

Change the Weather History Date:

Saturday, January 19, 2013

  Actual Average Record
Temperature  
Mean Temperature 44 °F -  
Max Temperature 62 °F 47 °F 75 °F (1999)
Min Temperature 26 °F 29 °F 3 °F (1977)
Degree Days  
Heating Degree Days 21    
Moisture  
Dew Point 30 °F    
Average Humidity 60    
Maximum Humidity 92    
Minimum Humidity 33    
Precipitation  
Precipitation 0.00 in - - ()
Sea Level Pressure  
Sea Level Pressure 30.25 in    
Wind  
Wind Speed 4 mph (South)    
Max Wind Speed 16 mph    
Max Gust Speed 21 mph    
Visibility 10 miles    
Events      
Averages and records for this station are not official NWS values.
T = Trace of Precipitation, MM = Missing Value Source: NWS Daily Summary

Daily Weather History Graph

Daily Weather History Graph

Search for Another Location

Airport:

Trip Planner

Search our weather history database for the weather conditions in past years. The results will help you decide how hot, cold, wet, or windy it might be!

Date:

Astronomy

Jan. 19, 2013 Rise Set
Actual Time 7:14 AM CST 5:24 PM CST
Civil Twilight 6:47 AM CST 5:51 PM CST
Nautical Twilight 6:16 AM CST 6:22 PM CST
Astronomical Twilight 5:46 AM CST 6:53 PM CST
Moon 11:48 AM CST (1/19) 12:52 AM CST (1/19)
Length of Visible Light 11h 04m
Length of Day
10h 10m
First Quarter, 57% of the Moon is Illuminated
Jan 19
First Quarter
Jan 26
Full
Feb 3
Last Quarter
Feb 10
New
Feb 17
First Quarter

Hourly Weather History & Observations

Time (CST) Temp. Windchill Dew Point Humidity Pressure Visibility Wind Dir Wind Speed Gust Speed Precip Events Conditions
12:55 AM 29.5 °F - 26.6 °F 89% 30.33 in 10.0 mi Calm Calm - N/A   Clear
1:55 AM 37.6 °F 32.3 °F 28.9 °F 71% 30.32 in 10.0 mi South 6.9 mph - N/A   Clear
2:55 AM 29.7 °F - 25.7 °F 85% 30.32 in 10.0 mi Calm Calm - N/A   Clear
3:55 AM 35.1 °F 31.0 °F 27.3 °F 73% 30.31 in 10.0 mi SSW 4.6 mph - N/A   Clear
4:55 AM 27.9 °F - 25.2 °F 90% 30.30 in 10.0 mi Calm Calm - N/A   Clear
5:55 AM 27.0 °F - 23.9 °F 88% 30.30 in 10.0 mi Calm Calm - N/A   Clear
6:55 AM 26.1 °F - 23.9 °F 92% 30.30 in 10.0 mi Calm Calm - N/A   Clear
7:55 AM 27.5 °F - 25.2 °F 91% 30.30 in 10.0 mi Calm Calm - N/A   Clear
8:55 AM 39.0 °F 33.4 °F 29.7 °F 69% 30.31 in 10.0 mi South 8.1 mph - N/A   Clear
9:55 AM 44.1 °F 39.5 °F 30.6 °F 59% 30.32 in 10.0 mi South 8.1 mph - N/A   Clear
10:55 AM 50.0 °F - 32.9 °F 52% 30.30 in 10.0 mi South 5.8 mph - N/A   Clear
11:55 AM 55.0 °F - 32.7 °F 43% 30.26 in 10.0 mi South 9.2 mph - N/A   Clear
12:55 PM 59.0 °F - 32.9 °F 37% 30.22 in 10.0 mi South 9.2 mph - N/A   Clear
12:58 PM 59.0 °F - 32.0 °F 36% 30.22 in 10.0 mi SSW 12.7 mph 17.3 mph N/A   Light Drizzle
1:07 PM 59.0 °F - 32.0 °F 36% 30.22 in 10.0 mi SSW 12.7 mph - N/A   Clear
1:55 PM 61.0 °F - 32.7 °F 35% 30.19 in 10.0 mi South 11.5 mph - 0.00 in   Clear
2:55 PM 62.1 °F - 32.4 °F 33% 30.18 in 10.0 mi South 9.2 mph - N/A   Clear
3:55 PM 60.3 °F - 31.3 °F 34% 30.17 in 10.0 mi SSW 16.1 mph 20.7 mph N/A   Clear
4:55 PM 57.9 °F - 30.9 °F 36% 30.18 in 10.0 mi SSW 10.4 mph - N/A   Clear
5:55 PM 54.1 °F - 32.0 °F 43% 30.17 in 10.0 mi SSW 6.9 mph - N/A   Clear
6:55 PM 51.3 °F - 31.1 °F 46% 30.19 in 10.0 mi Calm Calm - N/A   Clear
7:55 PM 50.4 °F - 31.1 °F 48% 30.20 in 10.0 mi South 5.8 mph - N/A   Clear
8:55 PM 48.9 °F - 30.7 °F 50% 30.21 in 10.0 mi SSW 4.6 mph - N/A   Clear
9:55 PM 39.0 °F - 30.6 °F 72% 30.22 in 10.0 mi Calm Calm - N/A   Clear
10:55 PM 35.4 °F - 30.7 °F 83% 30.23 in 10.0 mi Calm Calm - N/A   Clear
11:55 PM 34.7 °F - 29.7 °F 82% 30.22 in 10.0 mi Calm Calm - N/A   Clear